Fowler
DateTemperatureDew Point
09/01 - 05:00 PM77.9°55.9°
09/01 - 04:45 PM78.3°55.3°
09/01 - 04:30 PM78.7°55.0°
09/01 - 04:15 PM79.2°54.0°
09/01 - 04:00 PM79.5°54.9°
09/01 - 03:45 PM79.7°55.0°
09/01 - 03:30 PM80.3°55.2°
09/01 - 03:15 PM80.3°55.5°
09/01 - 03:00 PM80.1°55.1°
09/01 - 02:45 PM80.4°55.2°
09/01 - 02:30 PM80.4°55.4°
09/01 - 02:15 PM80.3°54.6°
09/01 - 02:00 PM80.2°54.4°
09/01 - 01:45 PM80.2°54.7°
09/01 - 01:30 PM79.6°55.3°
09/01 - 01:15 PM79.2°55.0°
09/01 - 01:00 PM79.2°54.9°
09/01 - 12:45 PM79.1°55.2°
09/01 - 12:30 PM78.8°54.0°
09/01 - 12:15 PM78.8°54.1°
09/01 - 12:00 PM77.9°54.5°
09/01 - 11:45 AM77.5°54.3°
09/01 - 11:30 AM76.0°54.4°
09/01 - 11:15 AM74.2°53.3°
09/01 - 11:00 AM72.7°53.0°
09/01 - 10:45 AM71.6°52.8°
09/01 - 10:30 AM70.6°52.3°
09/01 - 10:15 AM69.4°52.0°
09/01 - 10:00 AM68.7°52.2°
09/01 - 09:45 AM67.7°52.3°
09/01 - 09:30 AM66.7°51.8°
09/01 - 09:15 AM65.8°51.9°
09/01 - 09:00 AM64.9°51.3°
09/01 - 08:45 AM64.0°51.5°
09/01 - 08:30 AM63.0°51.3°
09/01 - 08:15 AM62.2°51.2°
09/01 - 08:00 AM61.3°50.8°
09/01 - 07:45 AM60.4°50.6°
09/01 - 07:30 AM59.3°50.3°
09/01 - 07:15 AM57.6°50.1°
09/01 - 07:00 AM55.1°50.8°
09/01 - 06:45 AM54.4°50.3°
09/01 - 06:30 AM54.5°49.9°
09/01 - 06:15 AM54.8°49.7°
09/01 - 06:00 AM55.4°49.8°
09/01 - 05:45 AM56.1°49.7°
09/01 - 05:30 AM56.9°50.0°
09/01 - 05:15 AM57.5°50.3°
09/01 - 05:00 AM58.0°50.5°
09/01 - 04:45 AM58.5°51.1°
09/01 - 04:30 AM58.7°50.9°
09/01 - 04:15 AM59.2°51.0°
09/01 - 04:00 AM59.5°51.1°
09/01 - 03:45 AM60.0°51.3°
09/01 - 03:30 AM60.5°51.2°
09/01 - 03:15 AM60.8°51.8°
09/01 - 03:00 AM61.3°51.5°
09/01 - 02:45 AM61.8°52.0°
09/01 - 02:30 AM62.3°52.1°
09/01 - 02:15 AM62.8°52.3°
09/01 - 02:00 AM63.2°52.7°
09/01 - 01:45 AM63.5°52.5°
09/01 - 01:30 AM63.9°53.2°
09/01 - 01:15 AM64.5°53.4°
09/01 - 01:00 AM64.7°53.4°
09/01 - 12:45 AM65.2°53.6°
09/01 - 12:30 AM65.8°53.5°
09/01 - 12:15 AM66.2°53.3°
09/01 - 12:00 AM66.7°53.2°
08/31 - 11:45 PM67.1°53.4°
08/31 - 11:30 PM67.8°53.4°
08/31 - 11:15 PM68.2°53.4°
08/31 - 11:00 PM68.9°53.6°
08/31 - 10:45 PM69.5°53.4°
08/31 - 10:30 PM70.5°53.2°
08/31 - 10:15 PM71.3°52.7°
08/31 - 10:00 PM72.3°52.1°
08/31 - 09:45 PM72.9°51.6°
08/31 - 09:30 PM72.8°51.3°
08/31 - 09:15 PM73.0°51.6°
08/31 - 09:00 PM74.2°52.4°
08/31 - 08:45 PM75.3°52.0°
08/31 - 08:30 PM76.6°52.9°
08/31 - 08:15 PM77.9°52.9°
08/31 - 08:00 PM77.5°52.5°
08/31 - 07:45 PM75.7°52.9°
08/31 - 07:30 PM72.8°55.0°
08/31 - 07:15 PM72.9°59.0°
08/31 - 07:00 PM74.3°60.8°
08/31 - 06:45 PM75.9°61.8°
08/31 - 06:30 PM77.7°63.0°
08/31 - 06:15 PM79.2°63.7°
08/31 - 06:00 PM80.5°64.6°
08/31 - 05:45 PM81.6°62.7°
08/31 - 05:30 PM82.3°61.2°
08/31 - 05:15 PM83.3°61.1°
08/31 - 05:00 PM83.9°58.0°
08/31 - 04:45 PM84.5°59.5°
08/31 - 04:30 PM85.0°60.2°
08/31 - 04:15 PM85.5°58.8°
08/31 - 04:00 PM85.6°59.1°
08/31 - 03:45 PM86.3°59.2°
08/31 - 03:30 PM86.9°59.2°
08/31 - 03:15 PM87.5°57.8°
08/31 - 03:00 PM88.1°56.0°
08/31 - 02:45 PM88.2°55.9°
08/31 - 02:30 PM87.8°56.4°
08/31 - 02:15 PM88.2°57.7°
08/31 - 02:00 PM88.4°55.6°
08/31 - 01:45 PM87.9°55.6°
08/31 - 01:30 PM88.1°57.3°
08/31 - 01:15 PM87.2°56.5°
08/31 - 01:00 PM87.5°57.2°
08/31 - 12:45 PM87.5°56.4°
08/31 - 12:30 PM88.6°57.8°
08/31 - 12:15 PM87.5°56.7°
08/31 - 12:00 PM85.4°56.0°
08/31 - 11:45 AM84.7°56.2°
08/31 - 11:30 AM83.7°56.3°
08/31 - 11:15 AM82.7°57.3°
08/31 - 11:00 AM80.4°57.2°
08/31 - 10:45 AM78.5°56.6°
08/31 - 10:30 AM76.9°56.9°
08/31 - 10:15 AM75.3°56.9°
08/31 - 10:00 AM74.1°57.0°
08/31 - 09:45 AM72.5°56.5°
08/31 - 09:30 AM71.5°56.3°
08/31 - 09:15 AM70.0°56.1°
08/31 - 09:00 AM68.3°55.9°
08/31 - 08:45 AM66.9°55.1°
08/31 - 08:30 AM65.0°55.4°
08/31 - 08:15 AM63.1°55.5°
08/31 - 08:00 AM61.1°54.9°
08/31 - 07:45 AM59.3°55.9°
08/31 - 07:30 AM57.5°54.9°
08/31 - 07:15 AM56.2°53.6°
08/31 - 07:00 AM55.1°52.2°
08/31 - 06:45 AM54.5°51.3°
08/31 - 06:30 AM54.2°50.8°
08/31 - 06:15 AM54.2°50.6°
08/31 - 06:00 AM54.5°50.4°
08/31 - 05:45 AM54.9°50.4°
08/31 - 05:30 AM55.3°50.7°
08/31 - 05:15 AM55.5°50.7°
08/31 - 05:00 AM55.8°51.0°
08/31 - 04:45 AM56.1°51.3°
08/31 - 04:30 AM56.4°51.2°
08/31 - 04:15 AM56.6°51.1°
08/31 - 04:00 AM57.0°51.2°
08/31 - 03:45 AM57.3°51.3°
08/31 - 03:30 AM57.5°51.4°
08/31 - 03:15 AM58.0°51.2°
08/31 - 03:00 AM58.5°51.1°
08/31 - 02:45 AM59.2°51.0°
08/31 - 02:30 AM60.0°51.3°
08/31 - 02:15 AM60.8°51.4°
08/31 - 02:00 AM61.3°51.1°
08/31 - 01:45 AM61.5°51.1°
08/31 - 01:30 AM61.7°50.8°
08/31 - 01:15 AM62.0°50.7°
08/31 - 01:00 AM62.7°51.1°
08/31 - 12:45 AM63.3°50.9°
08/31 - 12:30 AM63.7°50.2°
08/31 - 12:15 AM64.2°50.6°
08/31 - 12:00 AM64.7°50.9°
08/30 - 11:45 PM65.3°51.1°
08/30 - 11:30 PM65.9°50.8°
08/30 - 11:15 PM66.3°51.0°
08/30 - 11:00 PM67.0°51.7°
08/30 - 10:45 PM68.0°51.9°
08/30 - 10:30 PM69.0°51.7°
08/30 - 10:15 PM69.2°50.2°
08/30 - 10:00 PM68.4°51.1°
08/30 - 09:45 PM68.7°54.4°
08/30 - 09:30 PM69.7°54.4°
08/30 - 09:15 PM71.1°54.6°
08/30 - 09:00 PM72.7°54.4°
08/30 - 08:45 PM74.2°53.9°
08/30 - 08:30 PM75.0°52.0°
08/30 - 08:15 PM75.1°52.5°
08/30 - 08:00 PM75.1°52.0°
08/30 - 07:45 PM75.3°55.0°
08/30 - 07:30 PM76.1°56.3°
08/30 - 07:15 PM76.8°55.8°
08/30 - 07:00 PM78.1°59.2°
08/30 - 06:45 PM79.6°61.4°
08/30 - 06:30 PM81.3°64.2°
08/30 - 06:15 PM83.0°63.6°
08/30 - 06:00 PM84.4°62.4°
08/30 - 05:45 PM85.6°62.5°